Location: Newark
(48.9320°N, 2.2664°E)
Time: 07:04:16
(UTC+00:00)

Transit 4A - Visible Passes

Search period start: 25 February 2020 00:00
Search period end: 06 March 2020 00:00
Orbit: 872 x 973 km, 66.8° (Epoch: 24 February)

Date Brightness Start Highest point End Pass type
(mag) Time Alt. Az. Time Alt. Az. Time Alt. Az.
25 Feb 10.2 02:13:15 15° N 02:13:15 15° N 02:14:50 10° NNE visible
25 Feb 10.1 03:56:44 10° NNW 03:59:23 13° N 04:02:07 10° NNE visible
25 Feb 9.8 05:43:36 10° NNW 05:48:04 22° NNE 05:52:33 10° ENE visible
26 Feb 10.2 02:22:10 15° N 02:22:10 15° N 02:24:09 10° NNE visible
26 Feb 10.1 04:06:22 10° NNW 04:09:17 14° N 04:12:11 10° NE visible
26 Feb 9.6 05:52:52 10° NNW 05:57:46 27° NE 06:02:42 10° E visible
27 Feb 10.1 02:31:03 15° N 02:31:03 15° N 02:33:32 10° NNE visible
27 Feb 10.1 04:15:54 10° NNW 04:19:10 15° NNE 04:22:25 10° NE visible
27 Feb 9.3 06:02:06 10° NNW 06:07:23 34° NE 06:12:43 10° ESE visible
28 Feb 10.6 00:56:27 11° NNE 00:56:27 11° NNE 00:56:37 10° NNE visible
28 Feb 10.1 02:39:57 14° N 02:40:06 14° N 02:43:03 10° NNE visible
28 Feb 10.1 04:25:19 10° NNW 04:29:01 17° NNE 04:32:43 10° ENE visible
29 Feb 10.6 01:05:20 12° NNE 01:05:20 12° NNE 01:05:52 10° NNE visible
29 Feb 10.2 02:48:49 13° NNW 02:50:00 13° N 02:52:46 10° NNE visible
29 Feb 10.0 04:34:38 10° NNW 04:38:48 20° NNE 04:43:00 10° ENE visible
01 Mar 10.5 01:14:12 13° NNE 01:14:12 13° NNE 01:15:09 10° NNE visible
01 Mar 10.2 02:57:41 11° NNW 02:59:55 13° N 03:02:42 10° NNE visible
01 Mar 9.8 04:43:54 10° NNW 04:48:33 24° NNE 04:53:13 10° E visible
02 Mar 10.4 01:23:03 14° N 01:23:03 14° N 01:24:29 10° NNE visible
02 Mar 10.3 03:06:48 10° NNW 03:09:49 14° N 03:12:50 10° NE visible
02 Mar 9.5 04:53:09 10° NNW 04:58:13 29° NE 05:03:18 10° E visible
03 Mar 10.3 01:31:53 14° N 01:31:53 14° N 01:33:55 10° NNE visible
03 Mar 10.3 03:16:17 10° NNW 03:19:42 16° NNE 03:23:07 10° NE visible
03 Mar 9.2 05:02:25 10° NNW 05:07:48 37° NE 05:13:16 10° ESE visible
04 Mar 10.3 01:40:41 14° N 01:40:41 14° N 01:43:30 10° NNE visible
04 Mar 10.2 03:25:39 10° NNW 03:29:31 18° NNE 03:33:25 10° ENE visible
04 Mar 8.8 05:11:39 10° NNW 05:17:20 48° NE 05:23:04 10° ESE visible
05 Mar 10.6 00:05:59 11° NNE 00:05:59 11° NNE 00:06:11 10° NNE visible
05 Mar 10.3 01:49:28 13° NNW 01:50:33 13° N 01:53:18 10° NNE visible
05 Mar 10.0 03:34:57 10° NNW 03:39:18 21° NNE 03:43:40 10° ENE visible
05 Mar 8.3 05:20:56 10° NNW 05:26:47 65° NE 05:32:41 10° SE visible
